Regional Weather Roundup
Issued by NWS Little Rock, AR

Home | Current Version | Previous Version | Text Only | Print | Product List | Glossary On
Versions: 1 2 3 4 5 6 7 8 9 10 11 12 13 14 15 16 17 18 19 20 21 22 23 24 25 26 27 28 29 30 31 32 33 34 35 36 37 38 39 40 41 42 43 44
000
ASUS44 KLZK 262005
RWRLZK

WEATHER ROUNDUP FOR ARKANSAS
NATIONAL WEATHER SERVICE LITTLE ROCK AR
200 PM CST FRI DEC 26 2014

NOTE: "FAIR" INDICATES FEW OR NO CLOUDS BELOW 12,000 FEET WITH NO
SIGNIFICANT WEATHER AND/OR OBSTRUCTIONS TO VISIBILITY.

ARZ001-003-010-029-262100-
NORTHWEST ARKANSAS

CITY           SKY/WX    TMP DP  RH WIND       PRES   REMARKS
FAYETTEVILLE   CLOUDY    51  47  86 S12       29.97F
FORT SMITH     CLOUDY    55  47  74 SE6       29.98F
HARRISON       CLOUDY    51  46  83 S17       30.00F
BENTONVILLE    CLOUDY    55  46  71 S9G18     29.96F
ROGERS         CLOUDY    54  47  77 SE9       29.96F
SILOAM SPGS    CLOUDY    54  45  71 S15       29.96F
HIGHFILL       CLOUDY    54  48  80 S20G25    29.94F
SPRINGDALE     CLOUDY    54  48  82 S12G23    29.98F
$$

ARZ004-005-016-262100-
NORTH CENTRAL ARKANSAS

CITY           SKY/WX    TMP DP  RH WIND       PRES   REMARKS
BATESVILLE     CLOUDY    52  37  58 S10       30.09F
FLIPPIN        CLOUDY    52  43  71 S8        30.03F
MTN HOME       CLOUDY    52  44  74 S13       30.03F
$$

ARZ040-041-262100-
WEST CENTRAL ARKANSAS

CITY           SKY/WX    TMP DP  RH WIND       PRES   REMARKS
MENA           CLOUDY    55  52  88 SE8       29.99F
MOUNT IDA      CLOUDY    50  48  93 CALM      30.00F
$$

ARZ009-017-025-026-028-262100-
NORTHEAST ARKANSAS

CITY           SKY/WX    TMP DP  RH WIND       PRES   REMARKS
CORNING          N/A     52  43  71 SE9       30.11F
JONESBORO      PTSUNNY   54  43  66 S17       30.13F
NEWPORT        CLOUDY    55  42  61 S12       30.12F
WALNUT RIDGE   PTSUNNY   52  39  62 S12       30.11F
BLYTHEVILLE    PTSUNNY   56  43  61 S10       30.16F
$$

ARZ022-023-033-042-044-262100-
CENTRAL ARKANSAS

CITY           SKY/WX    TMP DP  RH WIND       PRES   REMARKS
LITTLE ROCK    CLOUDY    55  41  59 SE8       30.09F
N LITTLE ROCK  CLOUDY    53  44  73 SE12      30.09F
JACKSONVILLE   CLOUDY    54  44  68 SE10      30.09F
HOT SPRINGS    LGT RAIN  48  47  96 E7        30.06F FOG
RUSSELLVILLE   CLOUDY    50  44  80 E3        30.04F
CLINTON        CLOUDY    48  41  76 E5        30.10F
$$

ARZ036-262100-
EAST ARKANSAS

CITY           SKY/WX    TMP DP  RH WIND       PRES   REMARKS
WEST MEMPHIS   CLOUDY    54  41  61 S17       30.16F
$$

ARZ050-053-066-070-073-262100-
SOUTHWEST ARKANSAS

CITY           SKY/WX    TMP DP  RH WIND       PRES   REMARKS
ARKADELPHIA    CLOUDY    51  51 100 SE5       30.06F
CAMDEN         PTSUNNY   55  46  71 MISG      30.08F
TEXARKANA      CLOUDY    57  51  80 SE14G20   30.02F
EL DORADO      CLOUDY    54  47  77 SE9       30.08F
DE QUEEN       CLOUDY    53  51  93 E6        29.99F FOG
$$

ARZ056-057-069-262100-
SOUTHEAST ARKANSAS

CITY           SKY/WX    TMP DP  RH WIND       PRES   REMARKS
PINE BLUFF     CLOUDY    55  45  68 SE7       30.11F
STUTTGART      CLOUDY    55  43  62 SE13      30.12F
MONTICELLO     LGT RAIN  54  47  77 SE6       30.12F

$$




USA.gov is the U.S. government's official web portal to all federal, state and local government web resources and services.